Overview Statistics Trail Chart Weather Telemetry Raw packets
 

This is the latest recevied weather packets stored in our database for station/object WS4FSC-7. If no packets are shown the sender has not sent any weather packets the latest 10 day(s).

<< 66 67 68 69 70 71 72 >>
Time Temp. Humidity Pressure Rain* Wind** Luminosity Snow
1787936931 33.33° C 60% 1016 hPa - - 894 W/m² -
1787936751 33.33° C 64% 1017 hPa - - 884 W/m² -
1787936572 33.33° C 65% 1017 hPa - - 882 W/m² -
1787936391 33.33° C 65% 1017 hPa - - 879 W/m² -
1787936210 33.33° C 63% 1017 hPa - - 878 W/m² -
1787935671 33.33° C 65% 1017 hPa - - 876 W/m² -
1787935491 33.33° C 64% 1017 hPa - - 875 W/m² -
1787935312 33.33° C 64% 1017 hPa - - 874 W/m² -
1787934412 32.78° C 63% 1017 hPa - - 867 W/m² -
1787934051 33.33° C 61% 1017 hPa - - 857 W/m² -
1787933510 33.33° C 64% 1017 hPa - - 846 W/m² -
1787933331 33.33° C 63% 1017 hPa - - 842 W/m² -
1787932972 32.78° C 65% 1017 hPa - - 832 W/m² -
1787932791 32.78° C 62% 1017 hPa - - 826 W/m² -
1787932610 33.33° C 64% 1017 hPa - - 824 W/m² -
1787932250 33.33° C 65% 1017 hPa - - 813 W/m² -
1787932071 32.78° C 64% 1017 hPa - - 811 W/m² -
1787931891 32.78° C 65% 1017 hPa - - 804 W/m² -
1787931711 32.78° C 66% 1017 hPa - - 790 W/m² -
1787931531 32.78° C 64% 1017 hPa - - 389 W/m² -
1787930991 32.78° C 64% 1017 hPa - - 776 W/m² -
1787930811 33.33° C 63% 1017 hPa - - 769 W/m² -
1787930271 32.78° C 66% 1017 hPa - - 751 W/m² -
1787930090 32.78° C 66% 1017 hPa - - 742 W/m² -
1787929911 32.78° C 66% 1017 hPa - - 737 W/m² -

* Rain since midnight (hover to see other rain measurements)
** Current wind speed in m/s (hover to see current wind gust speed)